Weather History for KNGP - August, 2014

Change the Weather History Date:

Thursday, August 28, 2014

  Actual Average Record
Temperature  
Mean Temperature 86 °F -  
Max Temperature 91 °F 89 °F 100 °F (2011)
Min Temperature 81 °F 75 °F 70 °F (2015)
Cooling Degree Days 20    
Growing Degree Days 36 (Base 50)    
Moisture  
Dew Point 78 °F    
Average Humidity 80    
Maximum Humidity 91    
Minimum Humidity 61    
Precipitation  
Precipitation 0.01 in - - ()
Sea Level Pressure  
Sea Level Pressure 29.85 in    
Wind  
Wind Speed 13 mph (East)    
Max Wind Speed 22 mph    
Max Gust Speed 24 mph    
Visibility 10 miles    
Events Rain    
Averages and records for this station are not official NWS values.
T = Trace of Precipitation, MM = Missing Value Source: NWS Daily Summary

Daily Weather History Graph

Daily Weather History Graph

Search for Another Location

Airport or City:

Trip Planner

Search our weather history database for the weather conditions in past years. The results will help you decide how hot, cold, wet, or windy it might be!

Date:

Astronomy

Aug. 28, 2014 Rise Set
Actual Time 7:06 AM CDT 7:54 PM CDT
Civil Twilight 6:42 AM CDT 8:18 PM CDT
Nautical Twilight 6:13 AM CDT 8:46 PM CDT
Astronomical Twilight 5:45 AM CDT 9:14 PM CDT
Moon 9:41 AM CDT (8/28) 9:39 PM CDT (8/28)
Length of Visible Light 13h 35m
Length of Day
12h 47m
Waxing Crescent, 9% of the Moon is Illuminated
Aug 28
Waxing Crescent
Sep 2
First Quarter
Sep 8
Full
Sep 15
Last Quarter
Sep 24
New

Hourly Weather History & Observations

Time (CDT) Temp. Heat Index Dew Point Humidity Pressure Visibility Wind Dir Wind Speed Gust Speed Precip Events Conditions
12:56 AM 82.9 °F 92.8 °F 78.1 °F 85% 29.90 in 10.0 mi ENE 16.1 mph - N/A   Mostly Cloudy
1:56 AM 82.9 °F 92.8 °F 78.1 °F 85% 29.89 in 10.0 mi ENE 16.1 mph - N/A   Clear
2:56 AM 82.9 °F 93.8 °F 79.0 °F 88% 29.87 in 10.0 mi ENE 16.1 mph - N/A   Clear
3:56 AM 82.9 °F 93.8 °F 79.0 °F 88% 29.86 in 10.0 mi East 13.8 mph - N/A   Clear
4:12 AM 82.0 °F 91.0 °F 78.1 °F 88% 29.85 in 10.0 mi East 9.2 mph - N/A   Mostly Cloudy
4:25 AM 81.0 °F 88.6 °F 78.1 °F 91% 29.85 in 10.0 mi ESE 9.2 mph - N/A   Scattered Clouds
4:56 AM 81.0 °F 87.9 °F 77.0 °F 88% 29.85 in 10.0 mi ESE 6.9 mph - N/A   Clear
5:56 AM 81.0 °F 87.9 °F 77.0 °F 88% 29.83 in 10.0 mi East 5.8 mph - N/A   Mostly Cloudy
6:41 AM 81.0 °F 88.6 °F 78.1 °F 91% 29.86 in 10.0 mi East 6.9 mph - N/A   Mostly Cloudy
6:56 AM 81.0 °F 87.9 °F 77.0 °F 88% 29.86 in 10.0 mi East 8.1 mph - N/A   Mostly Cloudy
7:56 AM 82.0 °F 90.2 °F 77.0 °F 85% 29.86 in 10.0 mi ENE 6.9 mph - N/A   Mostly Cloudy
8:56 AM 82.9 °F 92.8 °F 78.1 °F 85% 29.88 in 10.0 mi East 10.4 mph - N/A   Mostly Cloudy
9:56 AM 84.9 °F 96.6 °F 78.1 °F 80% 29.88 in 10.0 mi ENE 8.1 mph - 0.00 in   Scattered Clouds
10:56 AM 88.0 °F 97.5 °F 75.0 °F 65% 29.89 in 10.0 mi NE 15.0 mph - N/A   Scattered Clouds
11:56 AM 90.0 °F 102.5 °F 77.0 °F 65% 29.88 in 10.0 mi NE 16.1 mph - N/A   Scattered Clouds
12:56 PM 90.0 °F 104.5 °F 78.1 °F 68% 29.87 in 10.0 mi ENE 21.9 mph - N/A   Mostly Cloudy
1:09 PM 86.0 °F 100.8 °F 80.1 °F 82% 29.86 in 5.0 mi ENE 15.0 mph - 0.01 in Rain Rain
1:56 PM 90.0 °F 102.5 °F 77.0 °F 65% 29.85 in 10.0 mi East 17.3 mph - 0.01 in   Mostly Cloudy
2:56 PM 90.0 °F 102.5 °F 77.0 °F 65% 29.84 in 10.0 mi East 17.3 mph 24.2 mph N/A   Mostly Cloudy
3:56 PM 90.0 °F 100.2 °F 75.0 °F 61% 29.83 in 10.0 mi East 15.0 mph - N/A   Mostly Cloudy
4:56 PM 87.1 °F 98.8 °F 77.0 °F 72% 29.82 in 10.0 mi ENE 16.1 mph - N/A   Mostly Cloudy
5:56 PM 86.0 °F 96.9 °F 77.0 °F 74% 29.82 in 10.0 mi ENE 16.1 mph - N/A   Mostly Cloudy
6:56 PM 87.1 °F 99.8 °F 78.1 °F 74% 29.82 in 10.0 mi East 16.1 mph - N/A   Mostly Cloudy
7:56 PM 84.9 °F 96.6 °F 78.1 °F 80% 29.81 in 10.0 mi East 16.1 mph - N/A   Mostly Cloudy
8:56 PM 84.0 °F 96.0 °F 79.0 °F 85% 29.82 in 10.0 mi East 15.0 mph - N/A   Mostly Cloudy
9:56 PM 82.9 °F 93.8 °F 79.0 °F 88% 29.83 in 10.0 mi East 16.1 mph - N/A   Mostly Cloudy
10:56 PM 84.0 °F 94.8 °F 78.1 °F 82% 29.83 in 10.0 mi East 17.3 mph - N/A   Mostly Cloudy
11:56 PM 84.9 °F 97.5 °F 79.0 °F 82% 29.85 in 10.0 mi East 10.4 mph - N/A   Overcast